QPF
0.01 0.01 0.00 0.01 0.01 0.00 0.00 0.00 0.00 0.00 0.00 0.00 0.00 0.00 0.00 0.00 0.00 0.00 0.00 0.00 0.00 0.00 0.00 0.00 0.00 0.00 0.00 0.00 0.00 0.00 0.00 0.00 0.00 0.00 0.00 0.00 0.00 0.00 0.00 0.00 0.00 0.00 0.00 0.00 0.00 0.00 0.00
0.00 0.00 0.00 0.00 0.00 0.00 0.00 0.00 0.00 0.00 0.00 0.00 0.00 0.00 0.00 0.00 0.00 0.00 0.00 0.00 0.00 0.00 0.00 0.00 0.00 0.00 0.00 0.00 0.00 0.00 0.00 0.00 0.00 0.00 0.00 0.00 0.00 0.00 0.00 0.00 0.00 0.00 0.00 0.00 0.00 0.00 0.00
0.00 0.00 0.00 0.00 0.00 0.00 0.00 0.00 0.00 0.00 0.00 0.00 0.00 0.00 0.00 0.00 0.00 0.00 0.00 0.00 0.00 0.00 0.00 0.00 0.00 0.00 0.00 0.00 0.00 0.00 0.00 0.00 0.00 0.00 0.00 0.00 0.00 0.00 0.00 0.00 0.00 0.00 0.00 0.00 0.00 0.00 0.00
0.00 0.00 0.00 0.00 0.00 0.00 0.00 0.00 0.00 0.00 0.00 0.00 0.00 0.00 0.00 0.00 0.00 0.00 0.00 0.00 0.00 0.00 0.00 0.00 0.00 0.00 0.00 0.00 0.00 0.00 0.00 0.00 0.00 0.00 0.00 0.00 0.00 0.00 0.00 0.00 0.00 0.00 0.00 0.00 0.00 0.00 0.00
0.00 0.00 0.00 0.00 0.00 0.00 0.00 0.00 0.00 0.00 0.00 0.00 0.00 0.00 0.00 0.00 0.00 0.00 0.00 0.00 0.00 0.00 0.00 0.00 0.00 0.00 0.00 0.00 0.00 0.00 0.00 0.00 0.00 0.00 0.00 0.00 0.00 0.00 0.00 0.00 0.00 0.00 0.00 0.00 0.00 0.00 0.00
0.00 0.00 0.00 0.00 0.00 0.00 0.00 0.00 0.00 0.00 0.00 0.00 0.00 0.00 0.00 0.00 0.00 0.00 0.00 0.00 0.00 0.00 0.00 0.00 0.00 0.00 0.00 0.00 0.00 0.00 0.00 0.00 0.00 0.00 0.00 0.00 0.00 0.00 0.00 0.00 0.00 0.00 0.00 0.00 0.00 0.00 0.00
0.00 0.00 0.00 0.00 0.00 0.00 0.00 0.00 0.00 0.00 0.00 0.00 0.00 0.00 0.00 0.00 0.00 0.00 0.00 0.00 0.00 0.00 0.00 0.00 0.00 0.00 0.00 0.00 0.00 0.00 0.00 0.00 0.00 0.00 0.00 0.00 0.00 0.00 0.00 0.00 0.00 0.00 0.00 0.00 0.00 0.00 0.00
0.00 0.00 0.00 0.00 0.00 0.00 0.00 0.00 0.00 0.00 0.00 0.00 0.00 0.00 0.00 0.00 0.00 0.00 0.00 0.00 0.00 0.00 0.00 0.00 0.00 0.00 0.00 0.00 0.00 0.00 0.00 0.00 0.00 0.00 0.00 0.00 0.00 0.00 0.00 0.00 0.00 0.00 0.00 0.00 0.00 0.00 0.00
0.00 0.00 0.00 0.00 0.00 0.00 0.00 0.00 0.00 0.00 0.00 0.00 0.00 0.00 0.00 0.00 0.00 0.00 0.00 0.00 0.00 0.00 0.00 0.00 0.00 0.00 0.00 0.00 0.00 0.00 0.00 0.00 0.00 0.00 0.00 0.00 0.00 0.00 0.00 0.00 0.00 0.00 0.00 0.00 0.00 0.00 0.00
0.00 0.00 0.00 0.00 0.00 0.00 0.00 0.00 0.00 0.00 0.00 0.00 0.00 0.00 0.00 0.00 0.00 0.00 0.00 0.00 0.00 0.00 0.00 0.00 0.00 0.00 0.00 0.00 0.00 0.00 0.00 0.00 0.00 0.00 0.00 0.00 0.00 0.00 0.00 0.00 0.00 0.00 0.00 0.00 0.00 0.00 0.00
0.00 0.00 0.00 0.00 0.00 0.00 0.00 0.00 0.00 0.00 0.00 0.00 0.00 0.00 0.00 0.00 0.00 0.00 0.00 0.00 0.00 0.00 0.00 0.00 0.00 0.00 0.00 0.00 0.00 0.00 0.00 0.00 0.00 0.00 0.00 0.00 0.00 0.00 0.00 0.00 0.00 0.00 0.00 0.00 0.00 0.00 0.00
0.00 0.00 0.00 0.00 0.00 0.00 0.00 0.00 0.00 0.00 0.00 0.00 0.00 0.00 0.00 0.00 0.00 0.00 0.00 0.00 0.00 0.00 0.00 0.00 0.00 0.00 0.00 0.00 0.00 0.00 0.00 0.00 0.00 0.00 0.00 0.00 0.00 0.00 0.00 0.00 0.00 0.00 0.00 0.00 0.00 0.00 0.00
0.00 0.00 0.00 0.00 0.00 0.00 0.00 0.00 0.00 0.00 0.00 0.00 0.00 0.00 0.00 0.00 0.00 0.00 0.00 0.00 0.00 0.00 0.00 0.00 0.00 0.00 0.00 0.00 0.00 0.00 0.00 0.00 0.00 0.00 0.00 0.00 0.00 0.00 0.00 0.00 0.00 0.00 0.00 0.00 0.00 0.00 0.00
0.00 0.00 0.00 0.00 0.00 0.00 0.00 0.00 0.00 0.00 0.00 0.00 0.00 0.00 0.00 0.00 0.00 0.00 0.00 0.00 0.00 0.00 0.00 0.00 0.00 0.00 0.00 0.00 0.00 0.00 0.00 0.00 0.00 0.00 0.00 0.00 0.00 0.00 0.00 0.00 0.00 0.00 0.00 0.00 0.00 0.00 0.00
0.00 0.00 0.00 0.00 0.00 0.00 0.00 0.00 0.00 0.00 0.00 0.00 0.00 0.00 0.00 0.00 0.00 0.00 0.00 0.00 0.00 0.00 0.00 0.00 0.00 0.00 0.00 0.00 0.00 0.00 0.00 0.00 0.00 0.00 0.00 0.00 0.00 0.00 0.00 0.00 0.00 0.00 0.00 0.00 0.00 0.00 0.00
0.00 0.00 0.00 0.00 0.00 0.00 0.00 0.00 0.00 0.00 0.00 0.00 0.00 0.00 0.00 0.00 0.00 0.00 0.00 0.00 0.00 0.00 0.00 0.00 0.00 0.00 0.00 0.00 0.00 0.00 0.00 0.00 0.00 0.00 0.00 0.00 0.00 0.00 0.00 0.00 0.00 0.00 0.00 0.00 0.00 0.00 0.00
0.00 0.00 0.00 0.00 0.00 0.00 0.00 0.00 0.00 0.00 0.00 0.00 0.00 0.00 0.00 0.00 0.00 0.00 0.00 0.00 0.00 0.00 0.00 0.00 0.00 0.00 0.00 0.00 0.00 0.00 0.00 0.00 0.00 0.00 0.00 0.00 0.00 0.00 0.00 0.00 0.00 0.00 0.00 0.00 0.00 0.00 0.00
0.00 0.00 0.00 0.00 0.00 0.00 0.00 0.00 0.00 0.00 0.00 0.00 0.00 0.00 0.00 0.00 0.00 0.00 0.00 0.00 0.00 0.00 0.00 0.00 0.00 0.00 0.00 0.00 0.00 0.00 0.00 0.00 0.00 0.00 0.00 0.00 0.00 0.00 0.00 0.00 0.00 0.00 0.00 0.00 0.00 0.00 0.00
0.00 0.00 0.00 0.00 0.00 0.00 0.00 0.00 0.00 0.00 0.00 0.00 0.00 0.00 0.00 0.00 0.00 0.00 0.00 0.00 0.00 0.00 0.00 0.00 0.00 0.00 0.00 0.00 0.00 0.00 0.00 0.00 0.00 0.00 0.00 0.00 0.00 0.00 0.00 0.00 0.00 0.00 0.00 0.00 0.00 0.00 0.00
0.00 0.00 0.00 0.00 0.00 0.00 0.00 0.00 0.00 0.00 0.00 0.00 0.00 0.00 0.00 0.00 0.00 0.00 0.00 0.00 0.00 0.00 0.00 0.00 0.00 0.00 0.00 0.00 0.00 0.00 0.00 0.00 0.00 0.00 0.00 0.00 0.00 0.00 0.00 0.00 0.00 0.00 0.00 0.00 0.00 0.00 0.00
0.00 0.00 0.00 0.00 0.00 0.00 0.00 0.00 0.00 0.00 0.00 0.00 0.00 0.00 0.00 0.00 0.00 0.00 0.00 0.00 0.00 0.00 0.00 0.00 0.00 0.00 0.00 0.00 0.00 0.00 0.00 0.00 0.00 0.00 0.00 0.00 0.00 0.00 0.00 0.00 0.00 0.00 0.00 0.00 0.00 0.00 0.00
0.00 0.00 0.00 0.00 0.00 0.00 0.00 0.00 0.00 0.00 0.00 0.00 0.00 0.00 0.00 0.00 0.00 0.00 0.00 0.00 0.00 0.00 0.00 0.00 0.00 0.00 0.00 0.00 0.00 0.00 0.00 0.00 0.00 0.00 0.00 0.00 0.00 0.00 0.00 0.00 0.00 0.00 0.00 0.00 0.00 0.00 0.00
0.00 0.00 0.00 0.00 0.00 0.00 0.00 0.00 0.00 0.00 0.00 0.00 0.00 0.00 0.00 0.00 0.00 0.00 0.00 0.00 0.00 0.00 0.00 0.00 0.00 0.00 0.00 0.00 0.00 0.00 0.00 0.00 0.00 0.00 0.00 0.00 0.00 0.00 0.00 0.00 0.00 0.00 0.00 0.00 0.00 0.00 0.00
0.00 0.00 0.00 0.00 0.00 0.00 0.00 0.00 0.00 0.00 0.00 0.00 0.00 0.00 0.00 0.00 0.00 0.00 0.00 0.00 0.00 0.00 0.00 0.00 0.00 0.00 0.00 0.00 0.00 0.00 0.00 0.00 0.00 0.00 0.00 0.00 0.00 0.00 0.00 0.00 0.00 0.00 0.00 0.00 0.00 0.00 0.00
0.00 0.00 0.00 0.00 0.00 0.00 0.00 0.00 0.00 0.00 0.00 0.00 0.00 0.00 0.00 0.00 0.00 0.00 0.00 0.00 0.00 0.00 0.00 0.00 0.00 0.00 0.00 0.00 0.00 0.00 0.00 0.00 0.00 0.00 0.00 0.00 0.00 0.00 0.00 0.00 0.00 0.00 0.00 0.00 0.00 0.00 0.00
0.00 0.00 0.00 0.00 0.00 0.00 0.00 0.00 0.00 0.00 0.00 0.00 0.00 0.00 0.00 0.00 0.00 0.00 0.00 0.00 0.00 0.00 0.00 0.00 0.00 0.00 0.00 0.00 0.00 0.00 0.00 0.00 0.00 0.00 0.00 0.00 0.00 0.00 0.00 0.00 0.00 0.00 0.00 0.00 0.00 0.00 0.00
0.00 0.00 0.00 0.00 0.00 0.00 0.00 0.00 0.00 0.00 0.00 0.00 0.00 0.00 0.00 0.00 0.00 0.00 0.00 0.00 0.00 0.00 0.00 0.00 0.00 0.00 0.00 0.00 0.00 0.00 0.00 0.00 0.00 0.00 0.00 0.00 0.00 0.00 0.00 0.00 0.00 0.00 0.00 0.00 0.00 0.00 0.00
0.01 0.00 0.00 0.00 0.00 0.00 0.00 0.00 0.00 0.00 0.00 0.00 0.00 0.00 0.00 0.00 0.00 0.00 0.00 0.00 0.00 0.00 0.00 0.00 0.00 0.00 0.00 0.00 0.00 0.00 0.00 0.00 0.00 0.00 0.00 0.00 0.00 0.00 0.00 0.00 0.00 0.00 0.00 0.00 0.00 0.00 0.00
0.00 0.00 0.00 0.00 0.00 0.00 0.00 0.00 0.00 0.00 0.00 0.00 0.00 0.00 0.00 0.00 0.00 0.00 0.00 0.00 0.00 0.00 0.00 0.00 0.00 0.00 0.00 0.00 0.00 0.00 0.00 0.00 0.00 0.00 0.00 0.00 0.00 0.00 0.00 0.00 0.00 0.00 0.00 0.00 0.00 0.00 0.00
MSLP
1019.56 1019.37 1019.17 1018.96 1018.81 1018.73 1018.70 1018.69 1018.63 1018.55 1018.45 1018.36 1018.32 1018.31 1018.28 1018.27 1018.23 1018.16 1018.08 1017.99 1017.91 1017.81 1017.64 1017.48 1017.27 1017.06 1016.79 1016.34 1015.58 1014.77 1014.76 1014.68 1014.55 1014.43 1014.72 1014.94 1015.24 1015.41 1015.59 1015.66 1015.61 1015.68 1015.39 1015.21 1014.82 1014.46 1014.44
1019.75 1019.56 1019.39 1019.20 1019.05 1018.90 1018.79 1018.73 1018.67 1018.67 1018.63 1018.42 1018.27 1018.20 1018.23 1018.24 1018.19 1018.15 1018.07 1017.99 1017.89 1017.76 1017.63 1017.49 1017.24 1017.02 1016.84 1016.11 1015.13 1014.92 1014.94 1014.77 1014.71 1014.74 1015.02 1015.20 1015.53 1015.61 1015.79 1015.92 1015.97 1015.93 1015.74 1015.46 1014.91 1014.72 1014.69
1019.83 1019.63 1019.46 1019.27 1019.09 1018.89 1018.79 1018.66 1018.62 1018.54 1018.42 1018.31 1018.21 1018.17 1018.16 1018.16 1018.14 1018.05 1017.99 1017.90 1017.86 1017.74 1017.59 1017.40 1017.23 1017.11 1016.49 1015.71 1015.24 1015.12 1015.04 1014.97 1014.95 1015.02 1015.25 1015.41 1015.51 1015.72 1016.03 1016.13 1016.09 1016.11 1016.09 1015.62 1015.15 1015.10 1015.06
1019.86 1019.64 1019.47 1019.27 1019.09 1018.91 1018.67 1018.51 1018.40 1018.37 1018.31 1018.24 1018.18 1018.15 1018.13 1018.08 1017.97 1017.86 1017.75 1017.74 1017.68 1017.52 1017.38 1017.22 1017.17 1017.03 1016.21 1015.24 1015.19 1015.05 1014.99 1014.95 1014.96 1015.16 1015.34 1015.38 1015.50 1015.94 1016.28 1016.35 1016.58 1016.70 1016.67 1016.61 1015.84 1015.56 1015.57
1019.99 1019.73 1019.49 1019.33 1019.15 1018.91 1018.67 1018.42 1018.30 1018.26 1018.23 1018.17 1018.09 1018.05 1018.02 1017.96 1017.84 1017.67 1017.62 1017.54 1017.39 1017.23 1017.12 1017.12 1017.14 1016.84 1016.05 1015.25 1015.31 1015.19 1015.15 1015.35 1015.35 1015.38 1015.35 1015.45 1015.75 1016.75 1016.87 1017.33 1017.74 1017.87 1017.62 1017.41 1016.83 1016.60 1016.84
1020.32 1019.95 1019.63 1019.39 1019.18 1018.93 1018.68 1018.41 1018.26 1018.15 1018.08 1018.01 1018.00 1017.96 1017.87 1017.73 1017.62 1017.56 1017.47 1017.39 1017.14 1016.93 1016.97 1016.96 1016.86 1016.81 1015.95 1015.79 1015.50 1015.41 1015.31 1015.35 1015.49 1015.71 1015.91 1016.16 1017.03 1017.51 1017.97 1018.03 1018.49 1018.22 1018.08 1017.92 1017.82 1017.47 1017.64
1020.70 1020.28 1019.84 1019.49 1019.21 1018.92 1018.64 1018.33 1018.07 1017.91 1017.80 1017.76 1017.76 1017.75 1017.71 1017.61 1017.56 1017.47 1017.24 1017.20 1017.56 1017.34 1016.87 1016.84 1016.67 1016.34 1015.96 1015.76 1015.61 1015.62 1015.48 1015.58 1015.72 1016.22 1016.77 1017.09 1017.67 1018.10 1017.92 1017.88 1017.84 1017.92 1018.13 1018.37 1018.13 1018.15 1018.67
1020.99 1020.56 1020.13 1019.72 1019.28 1018.96 1018.68 1018.42 1018.11 1017.81 1017.65 1017.60 1017.62 1017.65 1017.62 1017.59 1017.47 1017.37 1017.34 1017.26 1017.12 1017.12 1017.02 1016.51 1016.26 1016.11 1015.88 1015.74 1015.90 1015.83 1015.67 1016.03 1016.29 1016.98 1017.21 1017.71 1017.79 1017.48 1017.49 1017.66 1017.77 1018.00 1018.26 1018.43 1018.40 1018.57 1019.19
1021.11 1020.79 1020.35 1019.82 1019.41 1019.00 1018.59 1018.30 1018.10 1017.81 1017.49 1017.36 1017.39 1017.43 1017.48 1017.47 1017.38 1017.36 1017.17 1017.12 1016.85 1016.84 1016.93 1016.66 1016.20 1015.93 1015.82 1015.93 1016.19 1016.16 1016.20 1016.46 1016.90 1017.39 1017.65 1017.82 1017.61 1017.28 1017.38 1017.72 1017.91 1018.13 1018.32 1018.64 1019.17 1019.33 1019.83
1021.06 1020.78 1020.52 1020.09 1019.56 1019.06 1018.62 1018.17 1017.80 1017.63 1017.50 1017.31 1017.29 1017.31 1017.36 1017.29 1017.66 1017.40 1017.26 1017.00 1016.85 1016.82 1017.24 1017.02 1016.24 1015.80 1015.91 1016.03 1016.47 1016.46 1016.61 1017.07 1017.45 1017.93 1018.03 1018.06 1017.57 1017.44 1017.58 1017.86 1018.26 1018.33 1018.33 1018.81 1019.24 1019.97 1020.49
1021.23 1020.86 1020.38 1019.98 1019.59 1019.11 1018.68 1018.17 1017.75 1017.49 1017.39 1017.33 1017.21 1017.21 1017.30 1017.29 1017.36 1017.36 1017.29 1016.97 1016.88 1017.10 1017.48 1017.12 1016.20 1015.70 1015.98 1016.47 1016.93 1017.33 1017.61 1017.44 1018.31 1018.57 1018.72 1018.52 1018.06 1017.90 1017.97 1018.17 1018.44 1018.62 1018.75 1019.20 1019.63 1020.36 1020.91
1021.29 1020.92 1020.54 1020.03 1019.47 1019.08 1018.63 1018.21 1017.82 1017.54 1017.40 1017.33 1017.32 1017.25 1017.36 1017.32 1017.41 1017.24 1017.06 1016.93 1017.23 1017.83 1017.53 1017.04 1016.49 1016.35 1016.69 1017.06 1017.45 1018.08 1018.52 1018.77 1019.30 1019.32 1019.40 1019.27 1018.63 1018.51 1018.48 1018.52 1018.88 1019.20 1019.39 1019.97 1020.63 1021.30 1021.76
1021.43 1021.05 1020.63 1020.15 1019.62 1019.03 1018.50 1018.17 1017.83 1017.54 1017.36 1017.30 1017.29 1017.28 1017.31 1017.09 1017.38 1017.13 1017.14 1017.65 1018.24 1018.46 1018.09 1017.86 1017.44 1017.36 1017.68 1018.14 1018.51 1019.28 1020.55 1021.09 1021.42 1021.28 1021.32 1020.61 1019.79 1019.28 1019.05 1019.16 1019.36 1019.74 1020.74 1021.42 1022.03 1022.47 1022.11
1021.85 1021.28 1020.69 1020.19 1019.82 1019.17 1018.65 1018.16 1017.84 1017.59 1017.38 1017.21 1017.08 1016.94 1017.12 1017.11 1017.18 1017.21 1017.67 1018.48 1018.91 1018.97 1018.74 1018.43 1018.23 1018.26 1018.64 1019.02 1019.70 1020.66 1021.76 1022.74 1022.78 1022.73 1022.84 1022.30 1021.24 1020.53 1020.11 1020.23 1020.69 1021.23 1021.99 1022.91 1023.46 1023.81 1023.26
1022.32 1021.79 1021.26 1020.62 1019.85 1019.42 1018.81 1018.28 1017.91 1017.60 1017.39 1017.21 1017.11 1017.52 1017.63 1017.44 1017.29 1017.56 1018.29 1019.31 1019.74 1019.79 1019.63 1019.32 1019.03 1019.22 1019.53 1019.80 1020.40 1021.45 1022.66 1023.47 1023.81 1023.69 1023.43 1023.27 1022.38 1021.49 1020.98 1020.95 1021.37 1021.86 1022.54 1023.29 1024.02 1024.78 1024.88
1022.61 1022.00 1021.46 1020.89 1020.36 1019.68 1018.97 1018.45 1018.02 1017.68 1017.37 1017.20 1017.74 1018.12 1018.05 1017.55 1017.46 1018.08 1019.28 1020.44 1020.70 1020.49 1020.29 1020.11 1020.07 1020.17 1020.48 1020.70 1021.19 1021.86 1022.99 1023.86 1024.02 1023.97 1023.90 1024.32 1023.87 1022.79 1022.11 1021.79 1022.03 1022.27 1023.11 1024.01 1025.14 1025.95 1025.85
1022.83 1022.22 1021.61 1020.97 1020.36 1019.74 1019.22 1018.54 1017.99 1017.69 1017.37 1017.27 1018.06 1018.77 1018.14 1017.78 1017.84 1018.98 1020.73 1021.27 1021.15 1020.97 1020.82 1020.87 1020.82 1020.91 1021.17 1021.40 1021.76 1022.46 1023.38 1024.10 1024.08 1024.49 1024.58 1024.87 1025.01 1024.23 1023.54 1023.25 1023.32 1023.52 1023.98 1025.01 1025.92 1026.85 1027.19
1023.18 1022.59 1021.96 1021.38 1020.76 1020.08 1019.50 1018.90 1018.34 1017.87 1017.49 1017.35 1018.68 1019.28 1018.52 1018.12 1019.37 1021.09 1021.71 1021.59 1021.32 1021.37 1021.17 1021.26 1021.36 1021.43 1021.62 1021.88 1022.33 1023.02 1023.74 1024.33 1024.60 1024.90 1025.33 1025.72 1026.03 1025.83 1024.87 1024.09 1024.18 1024.32 1024.75 1025.66 1027.06 1028.04 1028.27
1023.52 1023.03 1022.40 1021.81 1021.14 1020.47 1019.82 1019.12 1018.46 1017.95 1017.64 1018.05 1019.41 1019.52 1018.83 1018.68 1020.73 1022.23 1022.18 1022.13 1021.99 1021.80 1021.84 1021.70 1021.84 1021.89 1022.01 1022.45 1023.17 1023.71 1024.40 1024.89 1025.04 1025.32 1025.79 1026.24 1026.88 1026.78 1025.94 1025.44 1024.79 1025.06 1025.51 1026.22 1027.46 1028.34 1028.34
1023.73 1023.25 1022.77 1022.24 1021.57 1020.82 1020.17 1019.46 1018.76 1017.95 1017.50 1018.09 1019.97 1020.60 1020.29 1020.92 1022.04 1022.08 1022.43 1022.48 1022.42 1022.21 1022.17 1022.17 1022.33 1022.34 1022.57 1023.00 1023.44 1024.15 1024.85 1025.31 1025.52 1025.74 1025.98 1026.46 1027.28 1027.13 1026.52 1025.87 1025.81 1026.14 1026.13 1026.63 1027.36 1028.47 1027.63
1024.13 1023.64 1023.14 1022.66 1022.03 1021.23 1020.52 1019.84 1019.10 1018.34 1017.80 1018.43 1020.88 1022.22 1022.19 1022.90 1022.72 1022.43 1022.30 1022.48 1022.56 1022.56 1022.57 1022.64 1022.90 1022.99 1023.24 1023.76 1024.12 1024.56 1025.17 1025.81 1026.05 1025.99 1026.70 1027.46 1027.97 1027.82 1027.03 1026.73 1026.67 1026.34 1026.00 1026.49 1026.94 1026.82 1026.70
1024.47 1024.16 1023.67 1023.20 1022.59 1021.85 1021.09 1020.30 1019.57 1018.59 1017.92 1019.37 1021.51 1022.14 1022.73 1022.91 1022.70 1022.48 1022.61 1022.62 1022.65 1022.82 1022.89 1023.09 1023.32 1023.54 1023.79 1024.14 1024.45 1024.96 1025.41 1025.89 1026.11 1026.73 1027.30 1028.00 1028.40 1028.66 1028.17 1027.33 1027.05 1026.27 1025.08 1025.42 1025.49 1025.49 1024.97
1024.72 1024.43 1024.14 1023.80 1023.35 1022.68 1021.99 1021.23 1020.34 1019.20 1018.26 1020.40 1022.01 1021.99 1021.92 1023.19 1022.97 1022.81 1022.74 1022.57 1022.68 1022.86 1023.35 1023.36 1023.53 1023.99 1024.35 1024.58 1024.87 1025.24 1025.60 1025.94 1026.15 1026.82 1027.67 1028.50 1029.18 1029.86 1029.28 1028.52 1027.59 1025.69 1023.30 1023.61 1023.67 1023.51 1023.32
1024.97 1024.70 1024.47 1024.18 1023.88 1023.44 1022.87 1022.23 1021.58 1020.92 1020.67 1021.45 1022.67 1022.51 1022.60 1023.47 1023.05 1022.76 1022.58 1022.64 1022.98 1023.20 1023.52 1023.86 1024.06 1024.34 1024.78 1024.94 1025.41 1025.78 1026.06 1026.20 1026.51 1026.82 1027.28 1028.51 1029.50 1030.19 1030.35 1029.32 1027.48 1023.22 1022.46 1022.31 1022.39 1022.29 1022.16
1025.02 1024.83 1024.71 1024.53 1024.28 1023.99 1023.59 1023.13 1022.65 1022.18 1021.82 1022.36 1023.01 1023.02 1023.14 1023.36 1023.18 1022.88 1022.79 1022.99 1023.41 1023.68 1023.98 1024.21 1024.56 1024.91 1025.05 1025.66 1026.50 1026.68 1026.78 1026.60 1026.28 1026.67 1027.45 1028.05 1029.23 1030.51 1030.90 1030.07 1026.61 1022.69 1022.04 1022.12 1022.21 1021.33 1021.11
1024.93 1024.84 1024.80 1024.70 1024.51 1024.36 1024.12 1023.78 1023.41 1023.03 1022.64 1022.90 1023.47 1023.53 1023.38 1023.52 1023.15 1022.52 1022.91 1023.20 1023.78 1024.35 1024.60 1024.73 1025.10 1025.33 1025.72 1026.78 1027.60 1027.98 1027.51 1026.67 1026.80 1027.11 1027.62 1028.45 1029.00 1030.12 1030.97 1030.54 1027.64 1022.93 1021.93 1021.68 1021.87 1021.39 1020.82
1024.81 1024.79 1024.76 1024.68 1024.62 1024.58 1024.45 1024.24 1023.97 1023.62 1023.26 1023.33 1023.80 1023.79 1023.67 1023.87 1023.10 1022.71 1022.78 1023.10 1023.40 1024.25 1024.88 1025.27 1025.58 1026.02 1026.33 1027.46 1028.40 1028.67 1027.77 1026.98 1026.89 1027.11 1027.89 1028.74 1029.48 1029.66 1030.00 1029.41 1025.89 1022.23 1021.70 1021.91 1022.60 1021.45 1021.09
1024.64 1024.59 1024.65 1024.68 1024.68 1024.64 1024.59 1024.53 1024.33 1024.06 1023.75 1023.73 1024.27 1024.07 1024.17 1024.26 1023.28 1022.63 1022.43 1022.56 1023.12 1023.54 1024.33 1025.26 1026.01 1026.50 1027.30 1027.92 1028.41 1028.39 1028.27 1027.58 1027.30 1026.81 1026.77 1027.18 1028.00 1028.54 1028.83 1028.34 1024.60 1021.26 1021.62 1021.62 1020.44 1020.67 1020.95
1024.67 1024.58 1024.43 1024.38 1024.54 1024.59 1024.57 1024.58 1024.50 1024.42 1024.20 1024.04 1024.59 1024.36 1024.36 1024.61 1023.69 1022.88 1022.22 1021.91 1021.95 1022.21 1023.03 1024.34 1024.74 1025.13 1025.83 1026.94 1027.89 1028.38 1028.41 1028.01 1027.60 1027.09 1026.05 1026.08 1024.80 1025.16 1025.21 1022.58 1020.84 1020.38 1019.71 1019.60 1020.07 1020.51 1020.90
Thickness
5602 5596 5590 5587 5584 5582 5580 5579 5580 5584 5590 5596 5602 5612 5623 5632 5641 5652 5662 5673 5681 5689 5697 5705 5712 5719 5726 5726 5730 5751 5755 5759 5761 5765 5758 5754 5746 5743 5738 5741 5744 5740 5746 5749 5752 5752 5752
5606 5601 5597 5594 5592 5590 5591 5592 5593 5595 5599 5604 5612 5621 5629 5638 5648 5656 5666 5675 5683 5691 5699 5706 5713 5720 5723 5717 5744 5749 5753 5756 5758 5757 5752 5751 5745 5747 5739 5739 5737 5740 5740 5738 5746 5746 5748
5612 5608 5604 5602 5601 5600 5599 5601 5602 5605 5610 5615 5623 5630 5637 5644 5651 5660 5669 5678 5685 5692 5700 5707 5713 5718 5722 5724 5743 5747 5750 5751 5755 5753 5747 5750 5750 5743 5739 5734 5740 5738 5730 5733 5746 5741 5744
5618 5615 5612 5610 5610 5611 5611 5611 5613 5615 5619 5624 5630 5636 5642 5649 5656 5665 5675 5682 5689 5696 5703 5709 5714 5719 5715 5740 5743 5746 5749 5750 5754 5753 5750 5751 5750 5741 5736 5738 5727 5723 5720 5707 5732 5733 5738
5624 5622 5620 5619 5618 5620 5622 5624 5625 5627 5630 5633 5638 5643 5648 5655 5662 5672 5680 5687 5694 5700 5706 5710 5714 5717 5714 5739 5734 5743 5747 5740 5743 5746 5748 5749 5744 5726 5726 5711 5700 5702 5699 5706 5708 5725 5722
5629 5628 5627 5627 5628 5629 5630 5634 5636 5638 5640 5643 5647 5651 5656 5663 5671 5678 5685 5691 5698 5704 5709 5712 5716 5711 5722 5719 5732 5738 5743 5742 5737 5735 5731 5731 5716 5706 5700 5696 5683 5696 5697 5701 5699 5712 5710
5633 5633 5633 5633 5634 5637 5640 5642 5646 5649 5652 5654 5656 5660 5665 5672 5678 5685 5691 5695 5692 5695 5707 5704 5708 5712 5718 5728 5734 5731 5738 5734 5733 5723 5709 5714 5698 5695 5703 5707 5710 5708 5701 5693 5695 5707 5699
5638 5638 5639 5639 5641 5643 5646 5649 5653 5657 5661 5663 5665 5669 5674 5680 5685 5690 5695 5694 5699 5705 5695 5712 5715 5717 5723 5726 5715 5724 5735 5721 5718 5704 5710 5698 5693 5709 5711 5713 5709 5705 5696 5688 5695 5701 5695
5643 5643 5644 5646 5648 5650 5654 5657 5660 5663 5668 5671 5674 5676 5680 5684 5689 5693 5697 5699 5706 5709 5692 5703 5712 5713 5717 5721 5710 5714 5722 5716 5709 5703 5702 5693 5706 5714 5711 5700 5697 5695 5692 5690 5684 5686 5681
5647 5649 5649 5651 5654 5657 5661 5665 5668 5671 5674 5679 5681 5684 5686 5690 5690 5695 5696 5703 5707 5710 5673 5688 5700 5710 5715 5715 5704 5720 5720 5712 5704 5697 5698 5696 5709 5707 5701 5697 5693 5683 5697 5691 5684 5672 5660
5650 5651 5655 5657 5660 5663 5666 5671 5675 5678 5680 5683 5686 5688 5690 5692 5693 5693 5699 5705 5707 5704 5657 5692 5699 5720 5714 5705 5706 5704 5710 5710 5694 5694 5694 5693 5697 5696 5692 5692 5694 5683 5689 5681 5679 5665 5661
5654 5656 5657 5661 5665 5668 5672 5676 5679 5683 5685 5687 5689 5691 5692 5694 5695 5698 5702 5705 5702 5669 5661 5684 5698 5696 5697 5699 5702 5701 5695 5698 5695 5692 5687 5687 5695 5693 5689 5691 5687 5680 5676 5663 5652 5642 5633
5655 5658 5660 5664 5668 5672 5676 5679 5683 5686 5689 5691 5692 5693 5694 5697 5693 5700 5702 5695 5665 5655 5686 5679 5684 5690 5686 5685 5690 5684 5669 5661 5659 5671 5656 5666 5678 5683 5684 5678 5677 5665 5645 5631 5639 5628 5633
5654 5658 5663 5666 5668 5674 5678 5682 5685 5688 5691 5693 5696 5697 5697 5698 5699 5701 5696 5680 5668 5672 5674 5683 5683 5685 5679 5679 5678 5670 5662 5651 5654 5653 5641 5647 5657 5663 5670 5665 5655 5648 5636 5617 5624 5615 5615
5652 5656 5659 5664 5670 5674 5679 5683 5686 5690 5692 5694 5696 5694 5693 5696 5698 5698 5682 5660 5663 5667 5671 5672 5679 5674 5671 5675 5672 5660 5649 5646 5646 5646 5651 5641 5649 5656 5663 5659 5651 5641 5624 5626 5612 5600 5590
5650 5655 5660 5664 5668 5674 5679 5683 5687 5691 5694 5695 5690 5686 5688 5695 5697 5690 5668 5658 5659 5666 5668 5670 5665 5666 5658 5663 5664 5658 5650 5645 5645 5644 5642 5636 5630 5643 5644 5649 5642 5637 5627 5610 5587 5596 5589
5647 5653 5658 5664 5669 5674 5678 5683 5687 5690 5693 5694 5687 5677 5688 5692 5692 5673 5657 5652 5659 5664 5665 5663 5661 5659 5656 5657 5657 5649 5645 5639 5642 5637 5633 5629 5620 5630 5628 5624 5618 5611 5608 5597 5588 5573 5572
5642 5648 5654 5660 5665 5671 5676 5680 5685 5689 5692 5691 5677 5668 5685 5689 5666 5636 5648 5658 5662 5658 5659 5659 5656 5656 5655 5652 5650 5643 5638 5634 5633 5630 5623 5615 5597 5595 5614 5616 5609 5609 5602 5585 5560 5572 5535
5638 5642 5648 5654 5661 5667 5672 5678 5683 5688 5691 5685 5672 5670 5682 5684 5657 5639 5651 5651 5651 5654 5651 5654 5651 5651 5650 5645 5640 5633 5626 5625 5623 5620 5608 5605 5588 5581 5604 5601 5603 5597 5590 5577 5546 5520 5516
5633 5638 5642 5647 5654 5661 5667 5673 5679 5686 5690 5686 5670 5664 5666 5656 5642 5648 5647 5646 5645 5648 5647 5645 5644 5645 5642 5636 5633 5624 5618 5615 5614 5611 5610 5596 5574 5587 5586 5599 5585 5579 5572 5564 5547 5489 5519
5627 5632 5636 5640 5646 5653 5660 5666 5672 5679 5683 5679 5654 5648 5649 5645 5645 5646 5646 5643 5639 5639 5640 5639 5635 5634 5631 5624 5623 5619 5612 5604 5603 5605 5590 5578 5571 5567 5570 5569 5565 5563 5565 5553 5537 5525 5520
5619 5623 5627 5632 5638 5644 5650 5657 5664 5673 5678 5663 5654 5647 5633 5631 5639 5646 5635 5639 5635 5633 5633 5630 5628 5624 5621 5619 5614 5609 5604 5598 5593 5588 5578 5563 5560 5555 5554 5559 5554 5551 5559 5550 5546 5538 5532
5612 5615 5618 5621 5626 5631 5637 5643 5652 5662 5670 5650 5637 5639 5642 5622 5629 5632 5630 5633 5631 5626 5622 5622 5620 5613 5611 5608 5603 5598 5591 5583 5586 5573 5561 5552 5540 5521 5518 5531 5531 5546 5569 5556 5546 5539 5534
5603 5606 5609 5612 5615 5619 5624 5629 5635 5641 5645 5639 5627 5629 5634 5625 5624 5626 5628 5627 5620 5619 5617 5611 5607 5605 5601 5594 5588 5581 5576 5572 5566 5562 5556 5534 5529 5507 5492 5510 5519 5578 5560 5555 5546 5545 5529
5594 5597 5599 5602 5605 5608 5612 5615 5619 5624 5627 5624 5617 5619 5618 5615 5611 5617 5616 5612 5607 5605 5605 5600 5596 5589 5584 5578 5566 5568 5564 5570 5566 5552 5541 5535 5520 5488 5476 5466 5521 5565 5552 5536 5523 5539 5527
5585 5587 5589 5591 5594 5596 5599 5601 5604 5608 5612 5612 5606 5606 5604 5603 5607 5614 5605 5600 5590 5584 5586 5585 5578 5571 5568 5552 5547 5526 5548 5565 5563 5548 5527 5518 5510 5495 5471 5447 5472 5548 5541 5533 5518 5508 5518
5577 5578 5579 5581 5582 5583 5585 5587 5589 5593 5596 5598 5593 5594 5593 5594 5596 5601 5593 5589 5581 5573 5568 5568 5564 5560 5554 5534 5525 5514 5532 5545 5534 5539 5515 5498 5486 5486 5468 5432 5489 5527 5523 5515 5484 5494 5501
5568 5568 5568 5570 5571 5571 5572 5573 5575 5578 5580 5583 5578 5580 5578 5574 5582 5591 5591 5583 5574 5565 5561 5554 5548 5541 5524 5522 5509 5513 5497 5521 5516 5523 5513 5500 5475 5467 5459 5435 5465 5524 5510 5500 5505 5494 5490
5558 5558 5559 5560 5560 5560 5561 5560 5561 5563 5565 5567 5563 5565 5564 5560 5571 5573 5578 5579 5577 5571 5556 5542 5550 5535 5528 5515 5499 5484 5495 5476 5496 5499 5508 5502 5520 5488 5487 5503 5519 5513 5519 5510 5496 5486 5476